Home > Weather > Algiers > Past weeks

Flag for Algeria Weather for the Past 2 Weeks in Algiers, Algeria

Now
63 °F

Passing clouds.


Feels Like: 63 °F
Forecast: 59 / 65 °F
Wind: 18 mph from Southwest

Location: Dar-El-Beida

Current Time: Feb 10, 2016 at 1:49:51 AM

Latest Report: Feb 10, 2016 at 1:00 AM


Visibility: N/A

Pressure: 30.07 "Hg

Humidity: 56%

Dew point: 46 °F

Location of AlgiersLocation

Historic Weather in Algiers — Graph

°F

Algiers Temperature Yesterday

Maximum temperature yesterday: 73 °F (at 1:30 PM)
Minimum temperature yesterday: 39 °F (at 8:00 AM)
Average temperature yesterday: 56 °F

High & Low Weather Summary for the Past Weeks

 TemperatureHumidityPressure
High73 °F (Feb 2, 2:00 PM)100% (Jan 26, 2:00 AM)30.60 "Hg (Jan 26, 2:00 AM)
Low32 °F (Feb 5, 8:00 AM)34% (Feb 5, 1:00 PM)30.04 "Hg (Feb 7, 5:00 AM)
Average55 °F81%30.38 "Hg
* Reported Midnight between Jan 25 and Jan 26 — Feb 10 12:30 AM, Algiers, Weather by CustomWeather, © 2016

Note: Actual official high and low records may vary slightly from our data, if they occured in-between our weather recording intervals... More about our weather records

Advertising

Algiers Weather History for the Previous 24 Hours

 ConditionsComfort  
Time TempWeatherWind HumidityBarometerVisibility
12:30 AM
Wed, Feb 10
63 °FPassing clouds.18 mph52%30.09 "HgN/A
12:00 AM63 °FPassing clouds.21 mph56%30.09 "HgN/A
11:30 PM
Tue, Feb 9
63 °FPassing clouds.17 mph52%30.12 "HgN/A
10:30 PM64 °FPassing clouds.24 mph49%30.09 "HgN/A
10:00 PM64 °FPassing clouds.22 mph49%30.09 "HgN/A
9:30 PM64 °FPassing clouds.21 mph49%30.09 "HgN/A
9:00 PM64 °FPassing clouds.16 mph52%30.12 "HgN/A
8:30 PM64 °FPassing clouds.18 mph56%30.12 "HgN/A
8:00 PM64 °FPassing clouds.17 mph56%30.12 "HgN/A
7:30 PM64 °FPassing clouds.13 mph56%30.12 "HgN/A
7:00 PM64 °FPassing clouds.14 mph56%30.12 "HgN/A
6:30 PM64 °FPassing clouds.14 mph60%30.12 "HgN/A
6:00 PM66 °FPartly sunny.15 mph52%30.12 "HgN/A
5:30 PM68 °FPartly sunny.13 mph49%30.12 "HgN/A
5:00 PM66 °FPartly sunny.12 mph60%30.12 "HgN/A
4:30 PM66 °FPartly sunny.15 mph60%30.12 "HgN/A
4:00 PM68 °FBroken clouds.16 mph53%30.12 "HgN/A
3:30 PM70 °FPartly sunny.15 mph46%30.12 "HgN/A
3:00 PM70 °FPartly sunny.15 mph43%30.12 "HgN/A
2:30 PM72 °FPartly sunny.14 mph38%30.15 "HgN/A
2:00 PM72 °FPartly sunny.15 mph38%30.15 "HgN/A
1:30 PM73 °FPartly sunny.13 mph36%30.18 "HgN/A
1:00 PM72 °FPartly sunny.3 mph44%30.18 "HgN/A
12:30 PM68 °FPartly sunny.7 mph46%30.21 "HgN/A
11:30 AM61 °FPartly sunny.3 mph72%30.24 "HgN/A
11:00 AM59 °FPartly sunny.2 mph72%30.24 "HgN/A
10:30 AM57 °FScattered clouds.1 mph72%30.24 "HgN/A
10:00 AM54 °FScattered clouds.1 mph88%30.24 "HgN/A
9:00 AM46 °FPassing clouds.3 mph100%30.24 "HgN/A
8:30 AM41 °FScattered clouds.2 mph100%30.24 "HgN/A
8:00 AM39 °FScattered clouds.3 mph100%30.24 "HgN/A
7:30 AM41 °FPassing clouds.No wind100%30.24 "HgN/A
7:00 AM41 °FPassing clouds.2 mph100%30.27 "HgN/A
6:30 AM41 °FPassing clouds.5 mph100%30.27 "HgN/A
6:00 AM43 °FPassing clouds.3 mph100%30.27 "HgN/A
5:30 AM41 °FPassing clouds.No wind100%30.27 "HgN/A
4:30 AM43 °FPassing clouds.3 mph100%30.27 "HgN/A
4:00 AM43 °FFog.1 mph100%30.27 "HgN/A
3:30 AM43 °FFog.3 mph100%30.30 "Hg1 mi
3:00 AM43 °FFog.No wind100%30.30 "Hg1 mi
2:30 AM43 °FFog.No wind100%30.30 "Hg1 mi
2:00 AM43 °FFog.1 mph100%30.30 "Hg1 mi
1:30 AM43 °FFog.No wind100%30.33 "Hg1 mi
1:00 AM45 °FFog.2 mph93%30.33 "Hg1 mi
Weather by CustomWeather, © 2016

See weather overviewHow to use our weather pages